CST,Max TemperatureF,Mean TemperatureF,Min TemperatureF,Max Dew PointF,MeanDew PointF,Min DewpointF,Max Humidity, Mean Humidity, Min Humidity, Max Sea Level PressureIn, Mean Sea Level PressureIn, Min Sea Level PressureIn, Max VisibilityMiles, Mean VisibilityMiles, Min VisibilityMiles, Max Wind SpeedMPH, Mean Wind SpeedMPH, Max Gust SpeedMPH,PrecipitationIn, CloudCover, Events, WindDirDegrees
2012-11-1,75,62,48,59,47,37,93,63,28,30.04,29.98,29.93,10,10,10,12,4,22,0.00,1,,336
2012-11-2,82,64,45,65,56,42,93,75,52,30.05,30.00,29.95,10,10,5,7,1,,0.00,1,,256
2012-11-3,84,72,59,66,62,58,100,84,44,30.13,30.05,30.00,10,6,0,6,1,,0.01,1,Fog,230
2012-11-4,81,70,57,64,59,53,100,83,47,30.10,30.04,29.97,10,5,0,12,2,20,0.01,1,Fog,315
2012-11-5,73,62,50,53,45,34,97,64,24,30.05,29.97,29.87,10,10,5,10,6,,0.55,3,Rain-Thunderstorm,52
2012-11-6,64,54,44,52,46,41,96,80,50,30.00,29.94,29.86,10,9,2,15,8,23,0.07,4,Rain,335
2012-11-7,66,54,43,47,41,36,93,67,37,30.09,29.99,29.91,10,10,7,15,6,20,0.00,2,,321
2012-11-8,64,52,39,42,38,36,93,68,37,30.21,30.16,30.09,10,10,10,9,6,,0.00,0,,349
2012-11-9,71,53,35,50,42,32,93,70,31,30.27,30.21,30.17,10,10,9,8,2,,0.00,0,,83
2012-11-10,73,58,43,54,48,40,89,70,42,30.29,30.23,30.20,10,10,10,10,5,,0.00,0,,113
2012-11-11,75,64,54,57,53,47,87,70,50,30.26,30.20,30.17,10,10,10,17,9,25,0.00,3,,109
2012-11-12,75,63,50,66,58,45,94,88,71,30.29,30.20,30.12,10,9,2,18,8,25,0.26,6,Rain,7
2012-11-13,62,52,41,43,34,30,83,59,31,30.31,30.24,30.19,10,10,10,16,12,23,0.00,0,,358
2012-11-14,64,52,39,52,45,31,90,75,62,30.27,30.20,30.15,10,10,10,12,6,,0.10,5,,27
2012-11-15,62,50,39,50,47,38,93,76,55,30.26,30.20,30.16,10,10,2,13,7,,0.00,5,,24
2012-11-16,55,48,42,46,43,40,96,86,69,30.27,30.22,30.19,10,10,8,13,5,,0.00,5,,14
2012-11-17,64,52,39,45,40,37,96,67,40,30.31,30.26,30.22,10,10,10,16,6,24,0.00,0,,32
2012-11-18,70,56,42,46,41,35,77,61,39,30.28,30.24,30.19,10,10,10,12,7,,0.00,1,,16
2012-11-19,72,56,41,48,44,38,93,67,40,30.24,30.19,30.13,10,10,10,10,5,,0.00,0,,22
2012-11-20,69,56,42,52,47,40,93,78,54,30.18,30.11,30.06,10,10,10,9,3,,0.00,2,,332
2012-11-21,75,58,42,49,46,41,96,72,37,30.16,30.11,30.06,10,10,7,14,4,,0.00,0,,333
2012-11-22,75,60,44,52,47,42,93,69,33,30.23,30.16,30.12,10,10,6,6,2,,0.00,0,,1
2012-11-23,73,58,44,54,48,42,100,74,38,30.24,30.16,30.09,10,8,1,9,3,,0.00,0,,303
2012-11-24,61,51,39,46,32,25,80,52,28,30.21,30.15,30.11,10,10,10,13,11,18,0.00,0,,350
2012-11-25,63,46,28,40,30,22,93,62,21,30.22,30.14,30.10,10,10,10,9,2,,0.00,0,,157
2012-11-26,66,50,34,58,47,32,93,76,53,30.18,30.13,30.10,10,10,10,9,3,,0.00,2,,118
2012-11-27,64,58,52,63,57,50,97,91,82,30.26,30.14,30.06,10,10,4,14,4,23,0.79,7,Rain,315
2012-11-28,62,52,42,49,41,35,92,70,37,30.39,30.30,30.23,10,10,10,14,10,21,0.00,3,,358
2012-11-29,64,50,35,46,41,32,100,79,52,30.37,30.31,30.25,10,9,1,8,4,,0.00,4,,42
2012-11-30,70,58,46,58,51,43,93,80,57,30.30,30.23,30.18,10,10,10,7,4,,0.00,4,,66